Regional Weather Roundup
Issued by NWS Jackson, KY

Home | Current Version | Previous Version | Text Only | Print | Product List | Glossary On
Versions: 1 2 3 4 5 6 7 8 9 10 11 12 13 14 15 16 17 18 19 20 21 22 23 24 25 26 27 28 29 30 31 32 33 34 35 36 37 38 39 40 41 42 43 44 45 46 47 48 49
000
ASUS43 KJKL 011110
RWRJKL

EAST KENTUCKY HOURLY WEATHER ROUNDUP
NATIONAL WEATHER SERVICE JACKSON KY
600 AM EST SUN MAR 01 2015

NOTE: "FAIR" INDICATES FEW OR NO CLOUDS BELOW 12,000 FEET WITH
NO SIGNIFICANT WEATHER AND/OR OBSTRUCTIONS TO VISIBILITY.

* THESE REPORTS ARE NOT UNDER NWS QUALITY CONTROL AND MAY NOT
  REPORT WEATHER SUCH AS PRECIPITATION AND FOG.

KYZ079-080-083-085-087-088-110-112-115-119-120-011200
...EASTERN KENTUCKY...

CITY           SKY/WX    TMP DP  RH WIND       PRES   REMARKS
JACKSON        LGT RAIN  36  24  62 SE3       30.38R
LONDON         CLOUDY    38  27  64 CALM      30.40R
SOMERSET*      CLOUDY    37  28  70 CALM      30.41R
MONTICELLO*    CLOUDY    44  34  68 S7        30.42S
MIDDLESBORO*   CLOUDY    37  29  74 CALM      30.42S
HAZARD APT*    CLOUDY    34  28  80 CALM      30.39S
BLACK MTN*       N/A     32  27  80 S10         N/A  WCI  24
PIKEVILLE APT* LGT RAIN  37  28  70 SE6       30.40R WCI  33
BIG SANDY*     DRIZZLE   36  28  74 SE3       30.40R
MOREHEAD APT*  CLOUDY    32  18  55 VRB5      30.42R WCI  27
$$

KYZ035-036-041-042-044-050-067-078-099-011200
...CENTRAL KENTUCKY...

CITY           SKY/WX    TMP DP  RH WIND       PRES   REMARKS
MT STERLING*   CLOUDY    32  25  74 S5        30.41R WCI  27
FLEMING/MASON* CLOUDY    30  19  64 CALM      30.41R
DANVILLE*      CLOUDY    32  28  86 CALM      30.39S
RICHMOND*      CLOUDY    34  25  69 SE3       30.38S
LEXINGTON      LGT RAIN  33  25  72 SE7       30.39R WCI  27
FRANKFORT        N/A     31  23  72 NE3       30.38R
$$

KYZ091>093-OHZ055-061-077-WVZ005-015-034-035-042-011200
...SOUTHERN OHIO/WEST VIRGINIA...

CITY           SKY/WX    TMP DP  RH WIND       PRES   REMARKS
COVINGTON      LGT SNOW  28  24  85 CALM      30.40R FOG
COLUMBUS       LGT SNOW  24  22  91 CALM      30.39R VSB 1
DAYTON         LGT SNOW  25  22  88 CALM      30.38S VSB 3/4
WILMINGTON     MIX PCPN  30  27  88 S6        30.37S FOG     WCI  24
HUNTINGTON     CLOUDY    30  17  58 CALM      30.41R
CHARLESTON     CLOUDY    31  23  72 CALM      30.41F
PINEVILLE*     MIX PCPN  34  33  95 MISG      30.48F
BECKLEY        FLURRIES  30  19  63 SE10      30.42R WCI  21
BLUEFIELD      CLOUDY    35  22  58 SE5       30.41S WCI  31
$$

VAZ002-007-008-TNZ017-027-036-066-071-011200
...SOUTHWEST VIRGINIA/EAST TENNESSEE...

CITY           SKY/WX    TMP DP  RH WIND       PRES   REMARKS
WISE*          CLOUDY    39  27  60 S13       30.37F WCI  32
JONESVILLE*    CLOUDY    34  30  86 CALM      30.44S
ABINGDON*      CLOUDY    37  25  61 E5        30.42R WCI  33
BRISTOL        MOCLDY    34  26  72 CALM      30.43R
KNOXVILLE      MOCLDY    35  28  75 NE3       30.43R
OAK RIDGE      CLOUDY    42  29  59 CALM      30.44R
CROSSVILLE     CLOUDY    42  34  73 S12G17    30.38R
NASHVILLE      CLOUDY    42  32  67 SE3       30.37S
$$

...KEY TO REMARKS...
VSB - VISIBILITY IN MILES
WCI - WIND CHILL INDEX
HX  - HEAT INDEX

$$



USA.gov is the U.S. government's official web portal to all federal, state and local government web resources and services.